Probability
0 0 0 0 0 0 0 0 0 0 0 0 0 0 0 0 0 0 0 0 0 0 0 0 0 0 0 0 0 0 0 0 0 0 0 0 0 0 0 0 0 0 0 0
0 0 0 0 0 0 0 0 0 0 0 0 0 0 0 0 0 0 0 0 0 0 0 0 0 0 0 0 0 0 0 0 0 0 0 0 0 0 0 0 0 0 0 0
0 0 0 0 0 0 0 0 0 0 0 0 0 0 0 0 0 0 0 0 0 0 0 0 0 0 0 0 0 0 0 0 0 0 0 0 0 0 0 0 0 0 0 0
0 0 0 0 0 0 0 0 0 0 0 0 0 0 0 0 0 0 0 0 0 0 0 0 0 0 0 0 0 0 0 0 0 0 0 0 0 0 0 0 0 0 0 0
0 0 0 0 0 0 0 0 0 0 0 0 0 0 0 0 0 0 0 0 0 0 0 0 0 0 0 0 0 0 0 0 0 0 0 0 0 0 0 0 0 0 0 0
0 0 0 0 0 0 0 0 0 0 0 0 0 0 0 0 0 0 0 0 0 0 0 0 0 0 0 0 0 0 0 0 0 0 0 0 0 0 0 0 0 0 0 0
0 0 0 0 0 0 0 0 0 0 0 0 0 0 0 0 0 0 0 0 0 0 0 0 0 0 0 0 0 0 0 0 0 0 0 0 0 0 0 0 0 0 0 0
0 0 0 0 0 0 0 0 0 0 0 0 0 0 0 0 0 0 0 0 0 0 0 0 0 0 0 0 0 0 0 0 0 0 0 0 0 0 0 0 0 0 0 0
0 0 0 0 0 0 0 0 0 0 0 0 0 0 0 0 0 0 0 0 0 0 0 0 0 0 0 0 0 0 0 0 0 0 0 0 0 0 0 0 0 0 0 0
0 0 0 0 0 0 0 0 0 0 0 0 0 0 0 0 0 0 0 0 0 0 0 0 0 0 0 0 0 0 0 0 0 0 0 0 0 0 0 0 0 0 0 0
0 0 0 0 0 0 0 0 0 0 0 0 0 0 0 0 0 0 0 0 0 0 0 0 0 0 0 0 0 0 0 0 0 0 0 0 0 0 0 0 0 0 0 0
0 0 0 0 0 0 0 0 0 0 0 0 0 0 0 0 0 0 0 0 0 0 0 0 0 0 0 0 0 0 0 0 0 0 0 0 0 0 0 0 0 0 0 0
0 0 0 0 0 0 0 0 0 0 0 0 0 0 0 0 0 0 0 0 0 0 0 0 0 0 0 0 0 0 0 0 0 0 0 0 0 0 0 0 0 0 0 0
0 0 0 0 0 0 0 0 0 0 0 0 0 0 0 0 0 0 0 0 0 0 0 0 0 0 0 0 0 0 0 0 0 0 0 0 0 0 0 0 0 0 0 0
0 0 0 0 0 0 0 0 0 0 0 0 0 0 0 0 0 0 0 0 0 0 0 0 0 0 0 0 0 0 0 0 0 0 0 0 0 0 0 0 0 0 0 0
0 0 0 0 0 0 0 0 0 0 0 0 0 0 0 0 0 0 0 0 0 0 0 0 0 0 0 0 0 0 0 0 0 0 0 0 0 0 0 0 0 0 0 0
0 0 0 0 0 0 0 0 0 0 0 0 0 0 0 0 0 0 0 0 0 0 0 0 0 0 0 0 0 0 0 0 0 0 0 0 0 0 0 0 0 0 0 0
0 0 0 0 0 0 0 0 0 0 0 0 0 0 0 0 0 0 0 0 0 0 0 0 0 0 0 0 0 0 0 0 0 0 0 0 0 0 0 0 0 0 0 0
0 0 0 0 0 0 0 0 0 0 0 0 0 0 0 0 0 0 0 0 0 0 0 0 0 0 0 0 0 0 0 0 0 0 0 0 0 0 0 0 0 0 0 0
0 0 0 0 0 0 0 0 0 0 0 0 0 0 0 0 0 0 0 0 0 0 0 0 0 0 0 0 0 0 0 0 0 0 0 0 0 0 0 0 0 0 0 0
0 0 0 0 0 0 0 0 0 0 0 0 0 0 0 0 0 0 0 0 0 0 0 0 0 0 0 0 0 0 0 0 0 0 0 0 0 0 0 0 0 0 0 0
0 0 0 0 0 0 0 0 0 0 0 0 0 0 0 0 0 0 0 0 0 0 0 0 0 0 0 0 0 0 0 0 0 0 0 0 0 0 0 0 0 0 0 0
0 0 0 0 0 0 0 0 0 0 0 0 0 0 0 0 0 0 0 0 0 0 0 0 0 0 0 0 0 0 0 0 0 0 0 0 0 0 0 0 0 0 0 0
0 0 0 0 0 0 0 0 0 0 0 0 0 0 0 0 0 0 0 0 0 0 0 0 0 0 0 0 0 0 0 0 0 0 0 0 0 0 0 0 0 0 0 0
0 0 0 0 0 0 0 0 0 0 0 0 0 0 0 0 0 0 0 0 0 0 0 0 0 0 0 0 0 0 0 0 0 0 0 0 0 0 0 0 0 0 0 0
0 0 0 0 0 0 0 0 0 0 0 0 0 0 0 0 0 0 0 0 0 0 0 0 0 0 0 0 0 0 0 0 0 0 0 0 0 0 0 0 0 0 0 0
0 0 0 0 0 0 0 0 0 0 0 0 0 0 0 0 0 0 0 0 0 0 0 0 0 0 0 0 0 0 0 0 0 0 0 0 0 0 0 0 0 0 0 0
Wind_Speed
1 1 4 6 9 12 13 13 11 11 13 14 13 13 12 10 8 7 7 9 11 11 11 11 10 10 10 9 9 8 8 7 6 6 5 5 5 4 4 3 3 3 4 4
2 3 4 6 9 12 14 14 16 16 18 14 13 12 13 13 11 11 10 11 12 12 12 13 13 12 11 10 10 9 9 8 7 7 6 6 5 5 5 4 4 4 4 4
3 2 3 9 10 13 11 11 11 15 14 10 11 12 13 12 11 12 12 11 12 13 13 13 13 13 13 12 11 10 9 9 8 8 7 7 6 6 5 5 4 4 4 4
3 4 8 2 1 6 10 10 12 13 13 13 13 13 13 12 12 12 11 11 11 11 12 12 11 12 11 11 12 11 10 10 9 9 8 7 7 6 6 5 4 4 4 4
3 5 7 3 3 5 6 5 6 9 11 10 9 9 7 5 8 10 10 9 8 8 9 9 11 12 12 12 12 11 11 11 10 10 9 8 8 7 6 5 5 4 3 3
4 5 5 1 2 2 3 4 1 4 6 7 5 5 3 6 6 6 5 4 4 4 6 8 10 11 12 12 12 12 11 10 10 10 9 9 8 7 6 5 5 4 4 4
7 6 5 2 2 5 5 1 2 3 5 5 4 5 7 7 6 4 3 2 0 3 4 6 8 11 11 11 12 10 9 9 9 9 9 8 8 7 6 6 6 5 5 5
6 7 5 2 4 4 3 3 3 5 5 5 6 6 6 5 4 3 2 2 2 2 3 4 7 9 9 9 8 8 9 9 9 9 8 7 8 7 7 7 7 7 6 6
4 3 3 1 2 4 5 5 5 6 6 5 5 5 4 3 2 2 2 1 1 2 3 4 6 7 7 7 8 9 10 9 9 9 8 8 8 8 7 7 6 6 6 6
5 5 4 4 3 5 5 6 7 7 7 6 5 5 3 2 2 1 1 0 1 2 3 4 5 6 6 6 8 9 10 9 9 9 8 8 7 7 7 8 7 7 7 6
6 6 6 2 4 8 8 7 7 6 5 5 5 4 3 3 2 2 1 1 2 2 3 3 5 6 6 7 8 9 9 8 8 8 8 8 8 8 9 9 8 8 7 6
4 5 6 8 9 10 9 8 7 6 5 4 4 4 3 2 2 1 1 1 2 3 3 3 4 6 6 7 9 9 8 8 7 7 7 7 7 7 11 10 12 14 11 8
7 9 10 11 10 8 8 8 6 5 5 5 4 3 3 2 2 2 2 2 3 3 4 4 4 5 6 7 9 10 9 8 7 7 7 7 7 7 7 9 14 15 16 16
8 8 8 7 8 8 8 7 5 4 3 3 4 3 2 2 2 2 2 3 3 3 3 3 4 5 5 7 9 10 9 9 8 7 7 7 8 7 7 7 7 7 12 17
6 7 9 10 9 8 6 5 5 4 4 3 3 3 3 3 2 2 3 3 3 3 3 3 4 4 3 6 8 9 8 7 7 7 7 7 7 7 7 8 7 6 5 8
11 10 9 8 8 8 7 6 6 5 4 4 3 3 3 3 3 2 3 3 2 3 3 3 4 4 3 5 7 7 7 9 8 6 6 7 7 7 7 7 7 7 8 7
8 8 8 8 8 8 7 6 6 5 4 4 4 3 3 2 2 2 3 3 3 2 3 3 4 4 3 4 5 5 5 6 10 7 7 7 7 8 8 8 8 8 8 8
7 8 8 8 8 7 6 4 3 3 3 3 2 2 2 2 3 3 4 3 2 2 3 4 5 5 4 3 4 4 4 5 5 6 6 6 7 7 7 8 8 9 7 7
6 6 6 6 6 5 4 3 3 3 2 2 2 1 1 2 3 3 3 3 3 3 4 6 8 5 4 4 3 3 4 4 5 5 5 7 7 7 7 7 8 8 7 6
5 5 5 5 4 3 3 3 3 2 2 2 1 1 2 2 3 3 2 2 2 3 5 6 6 5 4 4 4 3 3 4 5 4 5 5 6 6 6 7 7 7 7 7
5 5 5 4 4 4 3 3 3 3 2 2 2 2 2 3 3 3 2 2 2 4 5 6 4 4 4 4 4 3 3 3 4 4 4 5 5 6 6 6 7 7 7 7
5 5 5 5 5 4 4 3 3 3 3 3 3 3 3 3 3 3 2 2 3 6 5 4 4 6 7 6 3 3 3 3 3 3 4 4 5 5 6 6 6 6 6 6
5 5 5 5 5 5 5 4 4 4 4 4 4 4 4 3 3 3 3 2 3 6 5 4 6 9 8 4 3 3 3 3 3 3 4 4 4 5 5 6 6 6 6 6
6 6 6 5 5 5 6 5 4 4 5 5 5 5 4 4 3 3 3 5 6 7 4 5 8 8 7 3 3 3 3 3 3 3 4 4 4 4 5 5 5 5 5 6
7 6 6 6 6 6 6 5 5 5 5 5 5 5 4 4 4 3 3 4 5 6 4 5 7 7 4 3 3 3 3 3 4 4 4 4 4 4 5 5 5 5 5 5
7 6 6 6 6 5 4 4 4 4 4 4 4 4 4 3 4 4 3 4 5 5 4 3 4 4 3 3 4 4 4 4 4 4 4 4 5 5 4 5 6 5 5 5
7 6 5 6 5 5 5 5 5 5 5 5 5 4 4 3 3 4 4 3 3 3 3 3 3 3 3 3 4 4 4 4 4 4 4 4 4 4 4 5 5 4 4 5
Wind_Direction
251 137 176 205 209 208 215 228 241 252 253 258 265 275 284 288 284 263 236 215 207 205 200 193 190 188 185 180 175 173 175 178 176 170 165 161 157 150 141 132 120 113 112 108
223 219 220 239 232 224 230 237 245 258 265 269 277 278 276 274 270 259 246 229 217 211 207 201 196 191 187 184 179 178 181 179 171 171 169 167 163 158 149 139 130 124 119 114
211 202 230 248 234 223 223 225 234 248 261 281 280 276 275 276 271 262 254 240 225 216 212 208 201 193 190 184 176 180 182 177 175 175 174 172 168 166 158 149 142 139 130 128
191 187 232 242 116 229 234 246 242 256 272 282 285 291 287 279 273 268 258 246 234 223 217 210 199 191 184 176 177 181 181 179 178 177 176 173 173 171 162 156 158 153 145 143
215 233 260 264 208 198 215 256 246 252 271 286 301 292 275 285 279 273 272 262 248 230 217 201 190 181 175 176 179 183 185 183 181 179 177 176 178 175 168 166 165 163 159 159
217 237 244 210 116 170 206 241 226 252 285 307 309 289 341 1 332 312 301 284 257 219 195 186 178 172 175 179 183 189 187 183 180 180 181 182 180 175 171 171 172 172 176 187
229 242 263 304 134 169 224 30 17 297 297 301 280 291 322 327 332 340 348 357 10 170 173 173 165 170 180 183 191 186 177 175 177 180 183 180 175 173 172 176 178 186 192 200
215 228 244 90 149 205 317 346 315 304 304 296 284 289 300 315 330 346 6 34 64 125 134 147 164 175 183 190 182 169 170 173 177 181 179 176 174 174 179 183 189 195 203 209
243 259 9 6 254 312 321 304 308 305 308 302 292 293 301 309 323 343 3 41 74 127 136 153 176 186 191 184 168 169 173 178 180 181 182 179 181 181 184 192 200 203 208 215
268 276 298 296 302 320 316 300 303 302 300 296 291 298 298 300 306 309 318 224 167 172 179 183 190 199 197 173 171 176 181 182 182 183 185 186 190 191 194 198 203 207 212 217
270 296 311 311 343 333 322 314 314 314 306 299 294 299 300 290 286 284 283 254 221 222 227 216 198 200 190 176 176 183 188 188 188 191 191 194 200 203 205 210 209 208 212 213
288 333 313 307 322 322 316 316 318 313 309 315 308 297 299 287 292 290 280 259 245 241 240 231 214 209 197 187 187 189 193 194 194 194 195 199 202 211 222 224 222 225 226 222
296 304 296 293 301 309 307 310 312 307 298 301 313 314 301 291 305 309 300 282 270 265 257 245 228 221 207 196 196 200 202 198 197 198 199 201 203 208 213 220 227 231 230 230
300 300 291 299 305 310 306 304 302 303 309 310 314 321 314 301 303 306 308 305 295 283 269 255 243 236 219 204 204 209 211 206 203 203 203 204 206 211 213 212 212 221 227 230
309 305 289 293 294 296 297 293 287 289 300 307 314 315 314 304 300 311 320 318 300 287 288 277 262 259 238 214 212 215 214 212 208 208 205 206 207 209 213 216 221 222 213 222
308 302 295 291 295 301 302 293 284 285 289 292 297 305 309 307 308 321 336 333 312 305 313 303 289 290 267 230 220 220 221 218 210 208 206 207 207 210 214 215 218 220 221 216
304 308 314 309 304 303 301 296 290 286 284 282 294 305 310 312 314 336 347 343 329 324 332 322 313 311 281 243 229 225 224 220 213 213 213 211 210 214 217 217 220 224 226 217
288 292 296 298 299 299 299 300 301 301 298 299 307 310 318 322 325 334 337 333 331 342 354 337 328 320 302 271 245 235 229 225 216 218 217 215 216 217 219 221 224 228 230 223
297 299 305 310 310 300 297 303 308 312 316 314 305 315 331 331 329 328 332 339 340 336 347 339 332 324 313 300 273 240 232 229 226 225 223 226 225 221 221 224 227 229 228 221
296 301 307 315 324 320 315 318 320 321 329 328 316 317 323 329 328 323 321 325 338 325 322 325 327 322 315 305 289 256 244 239 237 233 228 227 228 228 226 227 229 230 230 229
290 293 298 301 306 308 308 307 304 306 316 315 297 294 300 310 314 308 295 292 328 326 322 325 324 318 311 309 296 275 260 252 247 243 239 236 234 235 234 231 231 231 232 232
279 278 281 284 287 290 292 290 284 284 288 284 277 275 278 286 294 289 268 280 308 317 318 315 314 315 318 314 294 284 276 266 258 253 250 246 243 243 242 240 239 238 236 236
270 267 268 270 276 282 282 271 263 262 264 265 265 264 265 271 276 276 280 292 305 312 313 306 313 318 321 313 297 287 279 272 266 260 257 253 251 251 251 249 247 245 243 240
266 264 263 266 270 270 271 270 262 258 259 262 257 254 256 264 262 248 265 292 302 307 303 307 317 321 323 311 302 295 288 282 277 273 267 262 258 256 256 255 254 252 249 247
263 261 258 256 257 258 262 267 266 259 256 255 254 248 241 241 252 266 270 279 293 302 298 304 314 320 317 303 301 297 292 287 287 285 276 273 270 267 264 261 259 258 255 252
259 257 255 250 251 257 256 252 254 256 254 257 258 246 236 234 242 252 258 267 277 290 293 295 301 307 302 299 298 297 294 294 293 287 283 281 278 275 270 267 264 262 261 259
259 257 257 258 251 242 240 241 246 251 245 246 256 249 238 235 237 243 251 259 267 274 279 284 290 292 294 295 294 294 293 292 290 287 286 282 278 276 274 272 271 269 266 263